CDT,Max TemperatureF,Mean TemperatureF,Min TemperatureF,Max Dew PointF,MeanDew PointF,Min DewpointF,Max Humidity, Mean Humidity, Min Humidity, Max Sea Level PressureIn, Mean Sea Level PressureIn, Min Sea Level PressureIn, Max VisibilityMiles, Mean VisibilityMiles, Min VisibilityMiles, Max Wind SpeedMPH, Mean Wind SpeedMPH, Max Gust SpeedMPH,PrecipitationIn, CloudCover, Events, WindDirDegrees
2013-3-1,29,18,7,16,11,0,76,65,53,30.44,30.39,30.24,10,10,10,13,5,16,T,4,,21
2013-3-2,25,9,-7,14,4,-11,87,67,46,30.44,30.35,30.21,10,10,10,9,3,10,0.00,3,,154
2013-3-3,32,26,19,12,9,5,71,55,38,30.19,30.09,30.02,10,10,10,17,9,23,0.00,6,,122
2013-3-4,26,24,22,20,18,7,88,65,42,30.09,29.99,29.92,10,3,0,14,9,23,0.42,8,Fog-Snow,109
2013-3-5,30,24,17,23,20,15,88,82,75,30.38,30.13,29.96,10,3,0,14,8,18,0.36,8,Fog-Snow,31
2013-3-6,27,14,0,18,13,-3,88,75,62,30.48,30.42,30.31,10,10,6,12,4,16,0.00,5,,342
2013-3-7,31,14,-4,17,5,-6,92,73,53,30.45,30.39,30.34,10,8,0,15,6,18,0.00,2,Fog,125
2013-3-8,35,22,9,26,17,9,92,81,69,30.36,30.28,30.13,10,4,1,10,5,13,0.00,0,,128
2013-3-9,36,34,32,34,32,26,100,89,78,30.10,29.85,29.69,10,3,1,15,6,20,0.75,8,Rain-Snow,90
2013-3-10,34,30,26,30,24,19,89,79,69,30.07,29.97,29.81,10,9,5,23,14,30,0.00,8,,359
2013-3-11,29,24,19,19,17,14,81,72,63,29.97,29.88,29.77,10,10,10,15,9,20,T,7,,331
2013-3-12,29,22,15,16,12,7,77,60,42,30.28,30.03,29.88,10,10,5,24,13,30,T,5,Snow,315
2013-3-13,31,19,6,16,11,4,91,71,50,30.44,30.37,30.28,10,10,9,12,6,14,T,1,Snow,274
2013-3-14,38,31,23,25,21,17,88,74,59,30.26,30.14,30.06,10,5,1,12,5,14,0.07,5,Snow,142
2013-3-15,33,28,22,29,25,17,92,82,72,30.05,29.94,29.84,10,4,0,14,8,18,0.33,8,Fog-Rain-Snow,32
2013-3-16,22,13,4,16,7,-4,77,63,49,30.33,30.15,29.96,10,10,7,17,10,21,T,3,Snow,338
2013-3-17,26,9,-8,13,2,-12,83,67,50,30.35,30.16,29.84,10,10,10,21,9,26,0.00,5,,111
2013-3-18,31,21,10,28,18,2,92,79,66,29.89,29.68,29.55,10,4,0,22,19,36,0.26,7,Fog-Rain-Snow,207
2013-3-19,20,13,5,4,-1,-4,76,61,45,30.27,30.14,29.96,10,10,5,31,21,38,0.00,0,,302
2013-3-20,19,11,3,3,-2,-6,69,59,49,30.30,30.25,30.19,10,10,10,25,16,31,0.00,0,,310
2013-3-21,24,9,-6,8,0,-10,87,67,46,30.21,30.16,30.07,10,10,10,7,2,9,0.00,0,,332
2013-3-22,35,15,-6,13,7,-4,95,67,39,30.17,30.14,30.06,10,10,8,7,1,8,0.00,0,,329
2013-3-23,38,21,3,21,13,6,100,68,35,30.22,30.18,30.14,10,10,7,12,4,14,0.00,0,,314
2013-3-24,32,28,24,23,20,18,81,68,54,30.15,30.10,30.03,10,7,0,16,7,22,0.02,7,Fog-Snow,23
2013-3-25,34,28,21,20,16,12,75,61,47,30.30,30.21,30.14,10,10,10,18,11,23,0.00,3,,343
2013-3-26,38,28,17,20,16,13,84,62,40,30.36,30.33,30.24,10,10,10,13,5,14,0.00,4,,315
2013-3-27,37,24,11,19,15,7,92,66,40,30.39,30.38,30.36,10,10,7,9,1,10,0.00,1,,217
2013-3-28,39,25,11,25,19,10,96,72,48,30.40,30.36,30.32,10,9,6,12,4,13,0.00,2,,136
2013-3-29,44,36,27,35,29,22,85,76,67,30.32,30.23,30.08,10,8,6,14,8,17,T,5,Rain,136
2013-3-30,48,40,32,38,35,29,92,79,65,30.04,29.92,29.85,10,5,2,17,9,22,0.42,4,Rain-Thunderstorm,241
2013-3-31,35,27,18,30,22,11,92,69,45,30.18,29.94,29.78,10,8,4,28,16,33,0.00,4,,297